Northfield, Minnesota, United States (55057)
Lat: 44.46N, Lon: 93.16W
Wx Zone: MNZ077
Local Info
Past Weather Observations for Today

NOTE: This archive is for the closest National Weather Service station to Northfield. Information may differ from the station used for current weather conditions.

Click here for Long-term Archive

Time Weather Temperature Dewpoint Humidity Pressure Winds Precip Visibility
11:15
Clear
34°F / 1°C 18°F / -8°C 51% 30.24 in
(1024 mb)
S 9.2 mph
(S 15 kph)
- 10SM
10:54
Clear
34°F / 1°C 16°F / -9°C 48% 30.24 in
(1024 mb)
S 12.7 mph
(S 20 kph)
- 10SM
10:34
Clear
34°F / 1°C 16°F / -9°C 48% 30.24 in
(1024 mb)
S 10.4 mph
(S 17 kph)
- 10SM
10:15
Clear
34°F / 1°C 14°F / -10°C 44% 30.24 in
(1024 mb)
S 10.4 mph
(S 17 kph)
- 10SM
09:54
Clear
32°F / 0°C 14°F / -10°C 47% 30.24 in
(1024 mb)
S 9.2 mph
(S 15 kph)
- 10SM
09:34
Clear
32°F / 0°C 14°F / -10°C 47% 30.24 in
(1024 mb)
SSE 8.1 mph
(SSE 13 kph)
- 10SM
09:14
Clear
32°F / 0°C 12°F / -11°C 44% 30.24 in
(1024 mb)
SSE 8.1 mph
(SSE 13 kph)
- 10SM
08:54
Clear
30°F / -1°C 12°F / -11°C 47% 30.24 in
(1024 mb)
SSE 5.8 mph
(SSE 9 kph)
- 10SM
08:34
Clear
28°F / -2°C 12°F / -11°C 51% 30.24 in
(1024 mb)
SSE 4.6 mph
(SSE 7 kph)
- 10SM
08:14
Clear
25°F / -4°C 14°F / -10°C 63% 30.24 in
(1024 mb)
S 5.8 mph
(S 9 kph)
- 10SM
07:54
Clear
21°F / -6°C 14°F / -10°C 74% 30.24 in
(1024 mb)
Calm - 10SM
07:34
Clear
19°F / -7°C 10°F / -12°C 68% 30.24 in
(1024 mb)
Calm - 10SM
07:14
Clear
18°F / -8°C 10°F / -12°C 73% 30.24 in
(1024 mb)
Calm - 10SM
06:54
Clear
16°F / -9°C 10°F / -12°C 79% 30.24 in
(1024 mb)
Calm - 10SM
06:34
Clear
16°F / -9°C 10°F / -12°C 79% 30.24 in
(1024 mb)
Calm - 10SM
06:14
Clear
16°F / -9°C 10°F / -12°C 79% 30.21 in
(1023 mb)
Calm - 10SM
05:54
Clear
14°F / -10°C 9°F / -13°C 79% 30.21 in
(1023 mb)
Calm - 10SM
05:35
Clear
16°F / -9°C 10°F / -12°C 79% 30.21 in
(1023 mb)
Calm - 10SM
05:14
Clear
16°F / -9°C 12°F / -11°C 86% 30.21 in
(1023 mb)
Calm - 10SM
04:54
Clear
16°F / -9°C 10°F / -12°C 79% 30.21 in
(1023 mb)
Calm - 10SM
04:35
Clear
18°F / -8°C 10°F / -12°C 73% 30.18 in
(1022 mb)
Calm - 10SM
04:14
Clear
18°F / -8°C 10°F / -12°C 73% 30.18 in
(1022 mb)
Calm - 10SM
03:54
Clear
19°F / -7°C 10°F / -12°C 68% 30.18 in
(1022 mb)
Calm - 10SM
03:35
Clear
19°F / -7°C 10°F / -12°C 68% 30.18 in
(1022 mb)
ESE 3.5 mph
(ESE 6 kph)
- 10SM
03:14
Clear
18°F / -8°C 10°F / -12°C 73% 30.18 in
(1022 mb)
E 4.6 mph
(E 7 kph)
- 10SM
02:55
Partly Cloudy
19°F / -7°C 10°F / -12°C 68% 30.18 in
(1022 mb)
Calm - 10SM
02:34
Partly Cloudy
19°F / -7°C 14°F / -10°C 79% 30.18 in
(1022 mb)
Calm - 10SM
02:14
Mostly Cloudy
21°F / -6°C 14°F / -10°C 74% 30.18 in
(1022 mb)
Calm - 10SM
01:55
Partly Cloudy
19°F / -7°C 14°F / -10°C 79% 30.18 in
(1022 mb)
Calm - 10SM
01:34
Overcast
21°F / -6°C 14°F / -10°C 74% 30.18 in
(1022 mb)
Calm - 10SM
01:14
Overcast
21°F / -6°C 16°F / -9°C 80% 30.18 in
(1022 mb)
Calm - 10SM
00:55
Mostly Cloudy
21°F / -6°C 12°F / -11°C 68% 30.18 in
(1022 mb)
Calm - 10SM
00:34
Partly Cloudy
23°F / -5°C 10°F / -12°C 58% 30.18 in
(1022 mb)
Calm - 10SM
00:14
Partly Cloudy
23°F / -5°C 12°F / -11°C 63% 30.18 in
(1022 mb)
Calm - 10SM
Time Weather Temperature Dewpoint Humidity Pressure Winds Precip Visibility


Weather for websites

WeatherForYou.com, LLC is not responsible for any damages or problems caused by this service. Current weather conditions are obtained from the closest station including government and personal stations which may have varying degrees of accuracy. Weather forecasts are derived from the NOAA NDFD. Like all things, this site belongs to Jesus Christ... He just trusts me to maintain it. If you have any questions or comments email webmaster@weatherforyou.com

Copyright © 2015, WeatherForYou.com LLC. All rights reserved.